Location: Brantley
(31.5822°N, 86.2569°W)
Time: 01:12:18
(UTC+00:00)

Courier 1B Rocket - Pass Details

Date: 23 February 2026
Orbit: 920 x 1201 km, 28.2° (Epoch: 9 March)

Event Time Altitude Azimuth Distance (km) Brightness Sun altitude
Rises 00:38:29 0° 262° (W) 3,561 10.0 -13.6°
Reaches altitude 10° 00:41:06 10° 260° (W) 2,607 8.7 -14.2°
Maximum altitude 00:47:16 66° 179° (S) 997 5.0 -15.5°
Enters shadow 00:51:11 24° 103° (ESE) 1,838 5.9 -16.3°
Drops below altitude 10° 00:53:31 10° 98° (E) 2,646 - -16.8°
Sets 00:56:12 0° 96° (E) 3,618 - -17.4°
